User: anonymous   Login
Location: ???
(60.6398°N, 46.9067°E)
Time: 07:43:48
(UTC+00:00)
Language:

NOAA 15 - Orbit

View from above orbital plane
View from above orbital plane
View from above satellite
View from above satellite

Ground track
Ground track

The orbit data is extracted from the following two-line orbital elements,

1 25338U 98030A   20057.09537539 +.00000016 +00000-0 +25238-4 0  9997
2 25338 098.7288 082.6531 0009715 225.2121 134.8269 14.25952523132969
Epoch (UTC): 26 February 2020 02:17:20
Eccentricity: 0.0009715
inclination: 98.7288°
perigee height: 798 km
apogee height: 812 km
right ascension of ascending node: 82.6531°
argument of perigee: 225.2121°
revolutions per day: 14.25952523
mean anomaly at epoch: 134.8269°
orbit number at epoch: 13296

The dashed part of the orbit path shows where the satellite is in the earth's shadow,  

DLR